Time,TemperatureF,DewpointF,PressureIn,WindDirection,WindDirectionDegrees,WindSpeedMPH,WindSpeedGustMPH,Humidity,HourlyPrecipIn,Conditions,Clouds,dailyrainin,SolarRadiationWatts/m^2,SoftwareType,DateUTC
2013-05-22 00:01:00,46.0,42.0,30.01,WSW,257,6.0,15.0,84,-99.99,,,0.02,0.230000,,2013-05-22 07:01:00,
2013-05-22 00:11:00,46.0,42.0,30.01,WSW,257,6.0,15.0,84,-99.99,,,0.02,0.230000,,2013-05-22 07:11:00,
2013-05-22 00:41:00,47.0,42.0,30.01,West,265,7.0,15.0,82,-99.99,,,0.02,0.120000,,2013-05-22 07:41:00,
2013-05-22 00:52:00,47.0,42.0,30.01,West,265,7.0,15.0,82,-99.99,,,0.02,0.120000,,2013-05-22 07:52:00,
2013-05-22 01:02:00,47.0,42.0,30.01,West,265,7.0,15.0,82,-99.99,,,0.02,0.120000,,2013-05-22 08:02:00,
2013-05-22 01:11:00,47.0,42.0,30.01,West,265,7.0,15.0,82,-99.99,,,0.02,0.120000,,2013-05-22 08:11:00,
2013-05-22 01:31:00,47.0,42.0,30.00,West,261,9.0,21.0,82,-99.99,,,0.02,0.120000,,2013-05-22 08:31:00,
2013-05-22 01:42:00,47.0,42.0,30.00,West,261,9.0,21.0,82,-99.99,,,0.02,0.120000,,2013-05-22 08:42:00,
2013-05-22 01:52:00,47.0,42.0,30.00,West,261,9.0,21.0,82,-99.99,,,0.02,0.120000,,2013-05-22 08:52:00,
2013-05-22 02:01:00,47.0,42.0,30.00,West,261,9.0,21.0,82,-99.99,,,0.02,0.120000,,2013-05-22 09:01:00,
2013-05-22 02:11:00,47.0,42.0,30.00,West,261,9.0,21.0,82,-99.99,,,0.02,0.120000,,2013-05-22 09:11:00,
2013-05-22 02:42:00,47.0,41.0,30.01,WSW,241,6.0,14.0,80,-99.99,,,0.02,0.000000,,2013-05-22 09:42:00,
2013-05-22 02:53:00,47.0,41.0,30.01,WSW,241,6.0,14.0,80,-99.99,,,0.02,0.000000,,2013-05-22 09:53:00,
2013-05-22 03:02:00,47.0,41.0,30.01,WSW,241,6.0,14.0,80,-99.99,,,0.02,0.000000,,2013-05-22 10:02:00,
2013-05-22 03:12:00,47.0,41.0,30.01,WSW,241,6.0,14.0,80,-99.99,,,0.02,0.000000,,2013-05-22 10:12:00,
2013-05-22 03:33:00,46.0,42.0,30.02,WSW,246,5.0,13.0,85,-99.99,,,0.02,0.000000,,2013-05-22 10:33:00,
2013-05-22 03:42:00,46.0,42.0,30.02,WSW,246,5.0,13.0,85,-99.99,,,0.02,0.000000,,2013-05-22 10:42:00,
2013-05-22 03:52:00,46.0,42.0,30.02,WSW,246,5.0,13.0,85,-99.99,,,0.02,0.000000,,2013-05-22 10:52:00,
2013-05-22 04:02:00,46.0,42.0,30.02,WSW,246,5.0,13.0,85,-99.99,,,0.02,0.000000,,2013-05-22 11:02:00,
2013-05-22 04:11:00,46.0,42.0,30.02,WSW,246,5.0,13.0,85,-99.99,,,0.02,0.000000,,2013-05-22 11:11:00,
2013-05-22 04:32:00,46.0,41.0,30.00,WSW,248,6.0,13.0,81,-99.99,,,0.02,0.000000,,2013-05-22 11:32:00,
2013-05-22 04:41:00,46.0,41.0,30.00,WSW,248,6.0,13.0,81,-99.99,,,0.02,0.000000,,2013-05-22 11:41:00,
2013-05-22 04:52:00,46.0,41.0,30.00,WSW,248,6.0,13.0,81,-99.99,,,0.02,0.000000,,2013-05-22 11:52:00,
2013-05-22 05:02:00,46.0,41.0,30.00,WSW,248,6.0,13.0,81,-99.99,,,0.02,0.000000,,2013-05-22 12:02:00,
2013-05-22 05:11:00,46.0,41.0,30.00,WSW,248,6.0,13.0,81,-99.99,,,0.02,0.000000,,2013-05-22 12:11:00,
2013-05-22 05:42:00,46.0,41.0,29.99,West,267,8.0,17.0,83,-99.99,,,0.02,0.120000,,2013-05-22 12:42:00,
2013-05-22 05:52:00,46.0,41.0,29.99,West,267,8.0,17.0,83,-99.99,,,0.02,0.120000,,2013-05-22 12:52:00,
2013-05-22 06:01:00,46.0,41.0,29.99,West,267,8.0,17.0,83,-99.99,,,0.02,0.120000,,2013-05-22 13:01:00,
2013-05-22 06:11:00,46.0,41.0,29.99,West,267,8.0,17.0,83,-99.99,,,0.02,0.120000,,2013-05-22 13:11:00,
2013-05-22 06:32:00,46.0,41.0,29.98,WSW,253,6.0,14.0,82,-99.99,,,0.02,0.930000,,2013-05-22 13:32:00,
2013-05-22 06:41:00,46.0,42.0,29.98,WSW,243,6.0,15.0,83,-99.99,,,-99.99,6.970000,,2013-05-22 13:41:00,
2013-05-22 06:52:00,46.0,42.0,29.98,WSW,243,6.0,15.0,83,-99.99,,,-99.99,6.970000,,2013-05-22 13:52:00,
2013-05-22 07:02:00,46.0,42.0,29.98,WSW,243,6.0,15.0,83,-99.99,,,-99.99,6.970000,,2013-05-22 14:02:00,
2013-05-22 07:11:00,46.0,42.0,29.98,WSW,243,6.0,15.0,83,-99.99,,,-99.99,6.970000,,2013-05-22 14:11:00,
2013-05-22 07:32:00,45.0,42.0,29.99,WSW,250,5.0,12.0,86,-99.99,,,0.02,19.639999,,2013-05-22 14:32:00,
2013-05-22 07:41:00,45.0,42.0,29.99,WSW,250,5.0,12.0,86,-99.99,,,0.02,19.639999,,2013-05-22 14:41:00,
2013-05-22 07:52:00,45.0,42.0,29.99,WSW,250,5.0,12.0,86,-99.99,,,0.02,19.639999,,2013-05-22 14:52:00,
2013-05-22 08:01:00,45.0,42.0,29.99,WSW,250,5.0,12.0,86,-99.99,,,0.02,19.639999,,2013-05-22 15:01:00,
2013-05-22 08:11:00,45.0,42.0,29.99,WSW,250,5.0,12.0,86,-99.99,,,0.02,19.639999,,2013-05-22 15:11:00,
2013-05-22 08:32:00,45.0,42.0,29.99,West,259,7.0,16.0,87,-99.99,,,0.02,53.930000,,2013-05-22 15:32:00,
2013-05-22 08:42:00,45.0,42.0,29.99,West,259,7.0,16.0,87,-99.99,,,0.02,53.930000,,2013-05-22 15:42:00,
2013-05-22 08:53:00,45.0,42.0,29.99,West,259,7.0,16.0,87,-99.99,,,0.02,53.930000,,2013-05-22 15:53:00,
2013-05-22 09:03:00,45.0,42.0,29.99,West,259,7.0,16.0,87,-99.99,,,0.02,53.930000,,2013-05-22 16:03:00,
2013-05-22 09:12:00,45.0,42.0,29.99,West,259,7.0,16.0,87,-99.99,,,0.02,53.930000,,2013-05-22 16:12:00,
2013-05-22 09:32:00,45.0,42.0,29.99,West,264,7.0,12.0,88,-99.99,,,0.03,64.730003,,2013-05-22 16:32:00,
2013-05-22 09:42:00,45.0,42.0,29.99,West,264,7.0,12.0,88,-99.99,,,0.03,64.730003,,2013-05-22 16:42:00,
2013-05-22 09:52:00,45.0,42.0,29.99,West,264,7.0,12.0,88,-99.99,,,0.03,64.730003,,2013-05-22 16:52:00,
2013-05-22 10:02:00,45.0,42.0,29.99,West,264,7.0,12.0,88,-99.99,,,0.03,64.730003,,2013-05-22 17:02:00,
2013-05-22 10:11:00,45.0,42.0,29.99,West,264,7.0,12.0,88,-99.99,,,0.03,64.730003,,2013-05-22 17:11:00,
2013-05-22 10:32:00,45.0,42.0,30.00,WSW,256,5.0,13.0,89,-99.99,,,0.03,92.629997,,2013-05-22 17:32:00,
2013-05-22 10:42:00,45.0,42.0,30.00,WSW,256,5.0,13.0,89,-99.99,,,0.03,92.629997,,2013-05-22 17:42:00,
2013-05-22 10:53:00,45.0,42.0,30.00,WSW,256,5.0,13.0,89,-99.99,,,0.03,92.629997,,2013-05-22 17:53:00,
2013-05-22 11:02:00,45.0,42.0,30.00,WSW,256,5.0,13.0,89,-99.99,,,0.03,92.629997,,2013-05-22 18:02:00,
2013-05-22 11:14:00,45.0,42.0,30.00,WSW,256,5.0,13.0,89,-99.99,,,0.03,92.629997,,2013-05-22 18:14:00,
2013-05-22 11:33:00,46.0,43.0,30.00,WSW,240,4.0,11.0,88,-99.99,,,0.03,186.300003,,2013-05-22 18:33:00,
2013-05-22 11:42:00,46.0,43.0,30.00,WSW,240,4.0,11.0,88,-99.99,,,0.03,186.300003,,2013-05-22 18:42:00,
2013-05-22 11:52:00,46.0,43.0,30.00,WSW,240,4.0,11.0,88,-99.99,,,0.03,186.300003,,2013-05-22 18:52:00,
2013-05-22 12:02:00,46.0,43.0,30.00,WSW,240,4.0,11.0,88,-99.99,,,0.03,186.300003,,2013-05-22 19:02:00,
2013-05-22 12:11:00,46.0,43.0,30.00,WSW,240,4.0,11.0,88,-99.99,,,0.03,186.300003,,2013-05-22 19:11:00,
2013-05-22 12:32:00,47.0,44.0,30.00,WSW,243,4.0,11.0,89,-99.99,,,0.04,160.850006,,2013-05-22 19:32:00,
2013-05-22 12:42:00,47.0,44.0,30.00,WSW,243,4.0,11.0,89,-99.99,,,0.04,160.850006,,2013-05-22 19:42:00,
2013-05-22 12:52:00,47.0,44.0,30.00,WSW,243,4.0,11.0,89,-99.99,,,0.04,160.850006,,2013-05-22 19:52:00,
2013-05-22 13:02:00,47.0,44.0,30.00,WSW,243,4.0,11.0,89,-99.99,,,0.04,160.850006,,2013-05-22 20:02:00,
2013-05-22 13:11:00,47.0,44.0,30.00,WSW,243,4.0,11.0,89,-99.99,,,0.04,160.850006,,2013-05-22 20:11:00,
2013-05-22 13:32:00,47.0,44.0,30.00,WSW,256,5.0,12.0,89,-99.99,,,0.04,180.839996,,2013-05-22 20:32:00,
2013-05-22 13:41:00,47.0,44.0,30.00,WSW,256,5.0,12.0,89,-99.99,,,0.04,180.839996,,2013-05-22 20:41:00,
2013-05-22 13:52:00,47.0,44.0,30.00,WSW,256,5.0,12.0,89,-99.99,,,0.04,180.839996,,2013-05-22 20:52:00,
2013-05-22 14:01:00,47.0,44.0,30.00,WSW,256,5.0,12.0,89,-99.99,,,0.04,180.839996,,2013-05-22 21:01:00,
2013-05-22 14:11:00,47.0,44.0,30.00,WSW,256,5.0,12.0,89,-99.99,,,0.04,180.839996,,2013-05-22 21:11:00,
2013-05-22 14:32:00,47.0,44.0,30.01,WSW,253,4.0,9.0,89,-99.99,,,0.04,194.550003,,2013-05-22 21:32:00,
2013-05-22 14:42:00,47.0,44.0,30.01,WSW,253,4.0,9.0,89,-99.99,,,0.04,194.550003,,2013-05-22 21:42:00,
2013-05-22 14:53:00,47.0,44.0,30.01,WSW,253,4.0,9.0,89,-99.99,,,0.04,194.550003,,2013-05-22 21:53:00,
2013-05-22 15:03:00,47.0,44.0,30.01,WSW,253,4.0,9.0,89,-99.99,,,0.04,194.550003,,2013-05-22 22:03:00,
2013-05-22 15:12:00,47.0,44.0,30.01,WSW,253,4.0,9.0,89,-99.99,,,0.04,194.550003,,2013-05-22 22:12:00,
2013-05-22 15:42:00,48.0,44.0,30.01,West,271,5.0,9.0,88,-99.99,,,0.04,175.490005,,2013-05-22 22:42:00,
2013-05-22 15:52:00,48.0,44.0,30.01,West,271,5.0,9.0,88,-99.99,,,0.04,175.490005,,2013-05-22 22:52:00,
2013-05-22 16:02:00,48.0,44.0,30.01,West,271,5.0,9.0,88,-99.99,,,0.04,175.490005,,2013-05-22 23:02:00,
2013-05-22 16:12:00,48.0,44.0,30.01,West,271,5.0,9.0,88,-99.99,,,0.04,175.490005,,2013-05-22 23:12:00,
2013-05-22 16:42:00,48.0,43.0,30.02,West,268,6.0,12.0,84,-99.99,,,0.04,160.729996,,2013-05-22 23:42:00,
2013-05-22 16:52:00,48.0,43.0,30.02,West,268,6.0,12.0,84,-99.99,,,0.04,160.729996,,2013-05-22 23:52:00,
2013-05-22 17:01:00,48.0,43.0,30.02,West,268,6.0,12.0,84,-99.99,,,0.04,160.729996,,2013-05-23 00:01:00,
2013-05-22 17:11:00,48.0,43.0,30.02,West,268,6.0,12.0,84,-99.99,,,0.04,160.729996,,2013-05-23 00:11:00,
2013-05-22 18:32:00,48.0,45.0,30.02,ESE,105,1.0,3.0,90,-99.99,,,0.04,61.020000,,2013-05-23 01:32:00,
2013-05-22 18:42:00,48.0,45.0,30.02,ESE,105,1.0,3.0,90,-99.99,,,0.04,61.020000,,2013-05-23 01:42:00,
2013-05-22 18:52:00,48.0,45.0,30.02,ESE,105,1.0,3.0,90,-99.99,,,0.04,61.020000,,2013-05-23 01:52:00,
2013-05-22 19:01:00,48.0,45.0,30.02,ESE,105,1.0,3.0,90,-99.99,,,0.04,61.020000,,2013-05-23 02:01:00,
2013-05-22 19:11:00,48.0,45.0,30.02,ESE,105,1.0,3.0,90,-99.99,,,0.04,61.020000,,2013-05-23 02:11:00,
2013-05-22 19:31:00,47.0,45.0,30.02,NE,53,0.0,2.0,93,-99.99,,,0.03,24.410000,,2013-05-23 02:31:00,
2013-05-22 19:42:00,47.0,45.0,30.02,NE,53,0.0,2.0,93,-99.99,,,0.03,24.410000,,2013-05-23 02:42:00,
2013-05-22 19:51:00,47.0,45.0,30.02,NE,53,0.0,2.0,93,-99.99,,,0.03,24.410000,,2013-05-23 02:51:00,
2013-05-22 20:01:00,47.0,45.0,30.02,NE,53,0.0,2.0,93,-99.99,,,0.03,24.410000,,2013-05-23 03:01:00,
2013-05-22 20:11:00,47.0,45.0,30.02,NE,53,0.0,2.0,93,-99.99,,,0.03,24.410000,,2013-05-23 03:11:00,
2013-05-22 20:43:00,46.0,44.0,30.02,NNE,28,1.0,3.0,94,-99.99,,,0.03,4.420000,,2013-05-23 03:43:00,
2013-05-22 20:53:00,46.0,44.0,30.02,NNE,28,1.0,3.0,94,-99.99,,,0.03,4.420000,,2013-05-23 03:53:00,
2013-05-22 21:02:00,46.0,44.0,30.02,NNE,28,1.0,3.0,94,-99.99,,,0.03,4.420000,,2013-05-23 04:02:00,
2013-05-22 21:12:00,46.0,44.0,30.02,NNE,28,1.0,3.0,94,-99.99,,,0.03,4.420000,,2013-05-23 04:12:00,
2013-05-22 21:33:00,46.0,44.0,30.02,NE,42,1.0,5.0,95,-99.99,,,0.03,0.120000,,2013-05-23 04:33:00,
2013-05-22 21:42:00,46.0,44.0,30.02,NE,42,1.0,5.0,95,-99.99,,,0.03,0.120000,,2013-05-23 04:42:00,
2013-05-22 21:52:00,46.0,44.0,30.02,NE,42,1.0,5.0,95,-99.99,,,0.03,0.120000,,2013-05-23 04:52:00,
2013-05-22 22:02:00,46.0,44.0,30.02,NE,42,1.0,5.0,95,-99.99,,,0.03,0.120000,,2013-05-23 05:02:00,
2013-05-22 22:11:00,46.0,44.0,30.02,NE,42,1.0,5.0,95,-99.99,,,0.03,0.120000,,2013-05-23 05:11:00,
2013-05-22 22:32:00,45.0,44.0,30.03,NNE,20,0.0,2.0,96,-99.99,,,0.03,0.120000,,2013-05-23 05:32:00,
2013-05-22 22:42:00,45.0,44.0,30.03,NNE,20,0.0,2.0,96,-99.99,,,0.03,0.120000,,2013-05-23 05:42:00,
2013-05-22 22:52:00,45.0,44.0,30.03,NNE,20,0.0,2.0,96,-99.99,,,0.03,0.120000,,2013-05-23 05:52:00,
2013-05-22 23:02:00,45.0,44.0,30.03,NNE,20,0.0,2.0,96,-99.99,,,0.03,0.120000,,2013-05-23 06:02:00,
2013-05-22 23:11:00,45.0,44.0,30.03,NNE,20,0.0,2.0,96,-99.99,,,0.03,0.120000,,2013-05-23 06:11:00,
2013-05-22 23:31:00,45.0,44.0,30.03,North,10,1.0,3.0,96,-99.99,,,0.03,0.120000,,2013-05-23 06:31:00,
2013-05-22 23:41:00,45.0,44.0,30.03,North,10,1.0,3.0,96,-99.99,,,0.03,0.120000,,2013-05-23 06:41:00,
2013-05-22 23:52:00,45.0,44.0,30.03,North,10,1.0,3.0,96,-99.99,,,0.03,0.120000,,2013-05-23 06:52:00,